STARLINK-32615, 62034

Orbit data source: Space-Track

STARLINK-32615, 62034 is a payload satellite owned by SpaceX/Seattle (US) in LEO that was launched on Thu, 21 Nov 2024 UTC via an FALCON 9 launch vehicle from the Air Force Eastern Test Range (AFETR). Payload-class satellites include a variety of spacecraft equipped with specific instruments for various scientific and technological missions. These include communications satellites like Starlink; space stations such as the ISS; scientific satellites like the Hubble; Earth observation satellites from companies like Planet Labs, Umbra, and HawkEye 360; GPS; miniature CubeSats for education and research; and military/defense satellites.

Loading next visibility...
Identifier
62034, 2024-216C
Orbit
LEO
Last TLE update
16 hours ago
Origin
Manufacturer
SpaceX/Seattle
Mission
Operational Commercial Communications
Bus & Motor
STARLINK V2M, Unknown motor
Mass
730 kg wet, ~700 kg dry
Launch date (UTC)
2024-11-21 (8 months ago)
Launch vehicle
FALCON 9
Launch site
Air Force Eastern Test Range (AFETR)
Object type
Payload
Rocket body
Debris
Shape & HBR
Box + 2 Pan, 29 m
Radar Cross Section
36.964 m², Large (>1 m²)

Expand to show TLE details & history

TLE from 16 hours ago
0 STARLINK-32615
1 62034U 24216C   25191.69017896  .00013621  00000-0  50341-3 0  9993
2 62034  43.0029 183.1283 0001898 277.9453  82.1183 15.27591279 35700
Epoch: 2025-07-10T16:33Z
TLE epoch observation values (Epoch: 2025-07-10T16:33:51.462Z)
Latitude
-0.00002°
Longitude
5.81101°
Altitude
482.613 km
Speed
7.626 km/s
True Right ascension
12h 12m 30s
True Declination
0° 00' 00"
Sunlit
Object was in daylight at epoch
Visualization orbit readout
Latitude
42.13673°
Longitude
107.27049°
Altitude
487.188 km
Speed
7.627 km/s
Apparent Right ascension
14h 15m 46s
Apparent Declination
11° 05' 05"
Sunlit
Object is in full shadow
Visualization observer readout
Local Sidereal Time
20:59:27
Azimuth
285.476° WNW
Elevation
-1.103°
Doppler factor
1
Orbital elements
Apogee altitude
486.263 km
Perigee altitude
483.657 km
Semi-major axis
6,863.097 km
Eccentricity
0.00019
Inclination
43.0029°
RAAN
183.1283°
Arg. of periapsis
277.9453°
True anomaly
Unknown
Mean anomaly
82.1183°
Eccentric anomaly
Unknown
Mean motion
3.81736 °/min
Orbital period
94.31 mins
BSTAR
0.00050341
Loading maneuver chart data...
Loading SW <> Apogee altitude chart data...
Loading historical data...
Loading historical data...
Loading historical data...
Loading historical data...
Loading historical data...
Loading historical data...
Loading historical data...

STARLINK-32615 Visibility forecast

Observer location: undefined°, undefined°

Span
Click to sort rows by Start time (UTC) header in descending order
Start Az.
Max El. time (UTC)
Max El. Az.
Max El.
End time (UTC)
End Az.
6 mins2025-07-11 08:44:52.553Z271.338° WNW2025-07-11 08:47:52.553Z212.032° SW26.403°2025-07-11 08:50:52.553Z152.205° SSE
4 mins2025-07-12 01:42:52.553Z176.528° S2025-07-12 01:44:52.553Z135.394° SSE18.161°2025-07-12 01:46:52.553Z100.873° ESE
5 mins2025-07-12 03:20:52.553Z244.991° WSW2025-07-12 03:22:52.553Z207.704° SW44.284°2025-07-12 03:25:52.553Z73.509° E
5 mins2025-07-12 04:59:52.553Z287.143° WNW2025-07-12 05:01:52.553Z338.504° N37.604°2025-07-12 05:04:52.553Z70.516° E
6 mins2025-07-12 06:38:52.553Z291.529° WNW2025-07-12 06:40:52.553Z316.997° NNW41.732°2025-07-12 06:44:52.553Z101.129° ESE
5 mins2025-07-12 08:17:52.553Z263.932° W2025-07-12 08:19:52.553Z219.298° SW26.749°2025-07-12 08:22:52.553Z153.288° SSE
|